TimeCST,TemperatureF,Dew PointF,Humidity,Sea Level PressureIn,VisibilityMPH,Wind Direction,Wind SpeedMPH,Gust SpeedMPH,PrecipitationIn,Events,Conditions,WindDirDegrees,DateUTC
12:15 AM,37.4,32.0,81,29.74,7.0,Calm,Calm,29.9,N/A,Snow,Light Snow,280,2013-01-31 06:15:00
12:35 AM,37.4,30.2,75,29.76,10.0,WNW,21.9,34.5,N/A,,Overcast,300,2013-01-31 06:35:00
12:55 AM,35.6,28.4,75,29.76,10.0,West,16.1,26.5,N/A,,Overcast,280,2013-01-31 06:55:00
1:15 AM,35.6,28.4,75,29.78,10.0,WNW,12.7,29.9,N/A,,Overcast,290,2013-01-31 07:15:00
1:35 AM,35.6,28.4,75,29.79,10.0,NE,12.7,18.4,N/A,,Overcast,50,2013-01-31 07:35:00
2:15 AM,35.6,26.6,70,29.82,10.0,NW,12.7,18.4,N/A,Snow,Light Snow,310,2013-01-31 08:15:00
2:35 AM,35.6,26.6,70,29.83,10.0,WNW,11.5,19.6,N/A,,Overcast,290,2013-01-31 08:35:00
2:55 AM,35.6,26.6,70,29.84,10.0,NW,11.5,17.3,N/A,,Overcast,310,2013-01-31 08:55:00
3:15 AM,35.6,26.6,70,29.84,10.0,WNW,10.4,20.7,N/A,,Overcast,300,2013-01-31 09:15:00
3:35 AM,33.8,26.6,75,29.85,10.0,West,8.1,19.6,N/A,Snow,Light Snow,270,2013-01-31 09:35:00
3:55 AM,33.8,26.6,75,29.86,10.0,WNW,8.1,20.7,N/A,,Overcast,290,2013-01-31 09:55:00
4:15 AM,33.8,24.8,70,29.86,10.0,West,5.8,-,N/A,,Overcast,270,2013-01-31 10:15:00
4:35 AM,33.8,24.8,70,29.87,10.0,West,10.4,25.3,N/A,,Overcast,260,2013-01-31 10:35:00
4:55 AM,33.8,24.8,70,29.86,10.0,WNW,8.1,-,N/A,,Overcast,300,2013-01-31 10:55:00
5:15 AM,33.8,21.2,60,29.88,10.0,West,13.8,19.6,N/A,,Overcast,280,2013-01-31 11:15:00
5:35 AM,33.8,23.0,65,29.89,10.0,West,4.6,-,N/A,,Overcast,280,2013-01-31 11:35:00
6:15 AM,33.8,24.8,70,29.90,10.0,West,4.6,-,N/A,,Overcast,280,2013-01-31 12:15:00
6:35 AM,33.8,26.6,75,29.90,10.0,NW,5.8,-,N/A,Snow,Light Snow,310,2013-01-31 12:35:00
6:55 AM,33.8,26.6,75,29.92,10.0,West,4.6,-,N/A,,Overcast,260,2013-01-31 12:55:00
7:15 AM,33.8,26.6,75,29.93,10.0,Calm,Calm,-,N/A,Snow,Light Snow,0,2013-01-31 13:15:00
7:35 AM,33.8,24.8,70,29.95,10.0,WNW,4.6,-,N/A,,Overcast,290,2013-01-31 13:35:00
7:55 AM,33.8,24.8,70,29.96,10.0,West,4.6,-,N/A,,Overcast,270,2013-01-31 13:55:00
8:15 AM,33.8,24.8,70,29.97,10.0,NW,8.1,-,N/A,,Overcast,310,2013-01-31 14:15:00
8:35 AM,33.8,23.0,65,29.98,10.0,West,12.7,19.6,N/A,,Overcast,280,2013-01-31 14:35:00
8:55 AM,33.8,23.0,65,29.99,10.0,WNW,8.1,-,N/A,,Overcast,290,2013-01-31 14:55:00
9:15 AM,33.8,24.8,70,29.99,10.0,WNW,4.6,-,N/A,,Overcast,290,2013-01-31 15:15:00
9:35 AM,33.8,24.8,70,30.00,10.0,West,5.8,-,N/A,Snow,Light Snow,270,2013-01-31 15:35:00
9:55 AM,35.6,24.8,65,30.00,10.0,WSW,6.9,-,N/A,,Overcast,250,2013-01-31 15:55:00
10:15 AM,35.6,24.8,65,30.01,10.0,WSW,9.2,-,N/A,Snow,Light Snow,240,2013-01-31 16:15:00
10:35 AM,35.6,26.6,70,30.01,5.0,WSW,9.2,17.3,N/A,Snow,Light Snow,250,2013-01-31 16:35:00
10:55 AM,35.6,26.6,70,30.01,4.0,WSW,6.9,-,N/A,Snow,Light Snow,240,2013-01-31 16:55:00
11:15 AM,35.6,28.4,75,30.01,10.0,West,9.2,-,N/A,Snow,Light Snow,280,2013-01-31 17:15:00
11:35 AM,35.6,26.6,70,30.01,10.0,West,11.5,18.4,N/A,,Mostly Cloudy,280,2013-01-31 17:35:00
11:55 AM,39.2,24.8,56,30.00,10.0,West,13.8,18.4,N/A,,Mostly Cloudy,270,2013-01-31 17:55:00
12:15 PM,39.2,24.8,56,30.00,10.0,WNW,12.7,21.9,N/A,,Overcast,300,2013-01-31 18:15:00
12:35 PM,41.0,26.6,57,30.00,10.0,WNW,12.7,20.7,N/A,,Mostly Cloudy,290,2013-01-31 18:35:00
12:55 PM,41.0,24.8,53,29.99,10.0,WNW,18.4,29.9,N/A,,Scattered Clouds,300,2013-01-31 18:55:00
1:15 PM,42.8,24.8,49,29.98,10.0,West,8.1,-,N/A,,Scattered Clouds,270,2013-01-31 19:15:00
1:35 PM,42.8,24.8,49,29.98,10.0,West,6.9,18.4,N/A,,Scattered Clouds,260,2013-01-31 19:35:00
1:55 PM,42.8,24.8,49,29.99,10.0,NW,13.8,20.7,N/A,,Scattered Clouds,310,2013-01-31 19:55:00
2:15 PM,42.8,23.0,46,29.97,10.0,SW,8.1,16.1,N/A,,Scattered Clouds,230,2013-01-31 20:15:00
2:35 PM,42.8,24.8,49,29.98,10.0,West,8.1,-,N/A,,Scattered Clouds,280,2013-01-31 20:35:00
2:55 PM,42.8,24.8,49,29.98,10.0,WSW,3.5,-,N/A,,Mostly Cloudy,240,2013-01-31 20:55:00
3:15 PM,42.8,24.8,49,29.98,10.0,WSW,8.1,-,N/A,,Mostly Cloudy,250,2013-01-31 21:15:00
3:35 PM,42.8,24.8,49,29.98,10.0,WSW,6.9,-,N/A,,Overcast,240,2013-01-31 21:35:00
3:55 PM,41.0,24.8,53,29.99,10.0,WSW,4.6,-,N/A,,Overcast,250,2013-01-31 21:55:00
4:15 PM,41.0,24.8,53,29.98,10.0,SW,8.1,-,N/A,,Overcast,230,2013-01-31 22:15:00
4:35 PM,41.0,24.8,53,29.98,10.0,WSW,3.5,-,N/A,,Overcast,250,2013-01-31 22:35:00
4:55 PM,39.2,24.8,56,29.98,10.0,West,6.9,-,N/A,,Mostly Cloudy,270,2013-01-31 22:55:00
5:15 PM,39.2,24.8,56,29.98,10.0,WSW,3.5,-,N/A,,Overcast,240,2013-01-31 23:15:00
5:35 PM,39.2,26.6,61,29.98,10.0,Calm,Calm,-,N/A,,Overcast,0,2013-01-31 23:35:00
5:55 PM,39.2,24.8,56,29.98,10.0,Calm,Calm,-,N/A,,Overcast,0,2013-01-31 23:55:00
6:15 PM,39.2,24.8,56,29.99,10.0,WSW,5.8,-,N/A,,Overcast,240,2013-02-01 00:15:00
6:35 PM,39.2,24.8,56,29.99,10.0,WSW,3.5,-,N/A,,Overcast,240,2013-02-01 00:35:00
7:15 PM,39.2,24.8,56,29.98,10.0,SW,6.9,-,N/A,,Overcast,230,2013-02-01 01:15:00
7:35 PM,39.2,26.6,61,29.98,10.0,SW,6.9,-,N/A,,Overcast,230,2013-02-01 01:35:00
7:55 PM,39.2,26.6,61,29.98,10.0,Calm,Calm,-,N/A,,Overcast,0,2013-02-01 01:55:00
8:15 PM,39.2,26.6,61,29.97,10.0,SW,5.8,-,N/A,,Overcast,230,2013-02-01 02:15:00
8:35 PM,41.0,26.6,57,29.96,10.0,WSW,8.1,-,N/A,,Overcast,250,2013-02-01 02:35:00
8:55 PM,41.0,28.4,61,29.96,10.0,WSW,5.8,16.1,N/A,,Overcast,250,2013-02-01 02:55:00
9:15 PM,42.8,28.4,57,29.95,10.0,SW,9.2,-,N/A,,Overcast,220,2013-02-01 03:15:00
9:35 PM,42.8,28.4,57,29.95,10.0,SW,6.9,-,N/A,,Overcast,220,2013-02-01 03:35:00
9:55 PM,42.8,28.4,57,29.94,10.0,SW,4.6,-,N/A,,Overcast,220,2013-02-01 03:55:00
10:15 PM,42.8,28.4,57,29.94,10.0,Calm,Calm,-,N/A,,Overcast,0,2013-02-01 04:15:00
10:35 PM,42.8,28.4,57,29.93,10.0,West,12.7,24.2,N/A,,Overcast,260,2013-02-01 04:35:00
10:55 PM,42.8,32.0,66,29.95,10.0,West,15.0,21.9,N/A,,Light Drizzle,260,2013-02-01 04:55:00
11:15 PM,39.2,33.8,81,29.96,10.0,West,12.7,18.4,N/A,Rain,Light Rain,260,2013-02-01 05:15:00
11:35 PM,39.2,33.8,81,29.95,10.0,West,6.9,21.9,N/A,Rain,Light Rain,270,2013-02-01 05:35:00
11:55 PM,37.4,35.6,93,29.96,5.0,WSW,4.6,-,N/A,Rain,Rain,250,2013-02-01 05:55:00